Regional Weather Roundup
Issued by NWS

Home | Current Version | Previous Version | Graphics & Text | Print | Product List | Glossary On
Versions: 1 2 3 4 5 6 7 8 9 10 11 12 13 14 15 16 17 18 19 20 21 22 23 24 25 26 27 28 29 30 31 32 33 34 35 36 37 38 39 40 41 42 43 44 45 46 47 48 49 50
000
ASUS43 KMPX 240010
RWRMN
WEATHER ROUNDUP FOR MINNESOTA
NATIONAL WEATHER SERVICE TWIN CITIES/CHANHASSEN MN
700 PM CDT SAT JUL 23 2016


NOTE: "FAIR" INDICATES FEW OR NO CLOUDS BELOW 12,000 FEET WITH NO
SIGNIFICANT WEATHER AND/OR OBSTRUCTIONS TO VISIBILITY. N/A MEANS
CURRENT SKY AND/OR WEATHER CONDITIONS ARE NOT AVAILABLE.

MNZ060>063-068>070-240100-
   Twin Cities Metro

CITY           SKY/WX    TMP DP  RH WIND       PRES   REMARKS
TWIN CITIES    MOSUNNY   75  70  84 SE12      29.80F
6HR MIN TEMP:  71; 6HR MAX TEMP:  76; 6HR PCP:  0.87;

ST PAUL        MOSUNNY   75  71  87 SE8       29.81F
CRYSTAL        SUNNY     76  68  76 SE9       29.78F
BLAINE         MOSUNNY   77  73  88 SE8       29.80F
LAKEVILLE      SUNNY     75  75 100 SE3       29.80F
EDEN PRAIRIE   SUNNY     77  71  82 E9        29.79F
6HR MIN TEMP:  73; 6HR MAX TEMP:  77; 6HR PCP:  0.81;

LAKEVILLE      SUNNY     75  75 100 SE3       29.80F
SOUTH ST PAUL  MOSUNNY   73  72  96 SE5       29.81F
LAKE ELMO      PTSUNNY   73  70  88 SE6       29.82F
$$
MNZ001>005-007-008-013>017-022>024-027-028-240100-
   Northwest Minnesota

CITY           SKY/WX    TMP DP  RH WIND       PRES   REMARKS
BEMIDJI        CLOUDY    75  68  78 S9        29.77F
HALLOCK        CLOUDY    73  70  88 SW3       29.70F
ROSEAU         MOSUNNY   73  66  78 SW5       29.72F
WARROAD        CLOUDY    75  72  88 S5        29.73S
THIEF RVR FALL CLOUDY    73  71  93 CALM      29.73F
CROOKSTON      SUNNY     79  72  78 CALM      29.71F
FOSSTON        CLOUDY    75  68  78 S5        29.75S
DETROIT LAKES  CLOUDY    77  70  78 S9        29.76F
MOORHEAD       MOSUNNY   82  72  69 S7        29.71S
PARK RAPIDS    CLOUDY    79  69  71 S9        29.78R
MAHNOMEN       CLOUDY    76  70  80 SE5       29.74F
$$
MNZ006-009>011-018-025>026-240100-
   North Central Minnesota

CITY           SKY/WX    TMP DP  RH WIND       PRES   REMARKS
BAUDETTE       CLOUDY    76  71  85 SE6       29.72F
FLAG ISLAND      N/A     73  66  78 E9        29.70F
INTL FALLS     CLOUDY    76  65  68 SE10      29.77S
6HR MIN TEMP:  76; 6HR MAX TEMP:  79;

WASKISH        SUNNY     79  70  73 SE6       29.75F
BIG FORK       SUNNY     75  66  73 S8        29.81S
LONGVILLE      MOSUNNY   75  66  73 SE10G17   29.80S
GRAND RAPIDS   PTSUNNY   75  68  78 S9        29.84F
CRANE LAKE     MOSUNNY   75  63  64 SE5       29.83F
ORR            MOSUNNY   75  63  64 SE9       29.80S
COOK           CLOUDY    75  66  73 S8        29.83F
WALKER         CLOUDY    75  69  80 SE5       29.78R
$$
MNZ012-019>021-037-240100-
   Northeast Minnesota

CITY           SKY/WX    TMP DP  RH WIND       PRES   REMARKS
DULUTH         PTSUNNY   71  64  78 SE8       29.86F
6HR MIN TEMP:  68; 6HR MAX TEMP:  73;

ELY            CLOUDY    72  61  68 S7        29.87S
HIBBING        MOSUNNY   73  66  78 S7        29.83F
EVELETH        CLOUDY    73  65  75 S5        29.86F
DULUTH HARBOR  PTSUNNY   64  61  88 E12       29.86F
TWO HARBORS    CLOUDY    73  64  73 E6        29.85S
SILVER BAY     CLOUDY    70  61  73 NE7       29.87R
GRAND MARAIS     N/A     61  56  83 NE7       29.87F
G MARAIS ARPRT PTSUNNY   70  55  60 NE7       29.93F
$$
MNZ029>031-032-039>041-046>048-054>057-064-240100-
   West Central Minnesota

CITY           SKY/WX    TMP DP  RH WIND       PRES   REMARKS
FERGUS FALLS   MOSUNNY   79  72  78 S12       29.74R
WHEATON        SUNNY     82  75  78 SE12G18   29.72F
MORRIS         MOSUNNY   81  73  78 SE14G20   29.73F
ALEXANDRIA     PTSUNNY   79  71  76 SE12      29.78S
ELBOW LAKE     FAIR      79  73  82 SE14      29.73F
WADENA         MOSUNNY   79  70  73 SE12      29.77S
GLENWOOD       MOSUNNY   77  72  83 SE12      29.78S
APPLETON       MOSUNNY   82  73  74 SE12      29.73F
BENSON         PTSUNNY   81  72  74 S13G20    29.75S
ORTONVILLE     PTSUNNY   82  75  78 SE13G18   29.72F
MADISON        SUNNY     84  75  74 E12       29.72F HX  92
WILLMAR        CLOUDY    79  73  83 SE12      29.77F
$$
MNZ033>034-036-042>043-049>051-058-059-240100-
   Central Minnesota

CITY           SKY/WX    TMP DP  RH WIND       PRES   REMARKS
ST CLOUD       SUNNY     76  71  85 SE10      29.77F
6HR MIN TEMP:  69; 6HR MAX TEMP:  77; 6HR PCP:  0.49;

SAUK CENTRE    MOCLDY    76  71  82 SE13      29.78S
PAYNESVILLE    MOSUNNY   78  74  88 SE13      29.78S
AITKIN         PTSUNNY   77  66  69 SE5       29.80S
PINE RIVER     PTSUNNY   75  68  78 SE10      29.84R
BRAINERD       PTSUNNY   73  68  84 SE9       29.80S
STAPLES        PTSUNNY   79  68  69 SE8       29.78S
LONG PRAIRIE   FAIR      75  70  83 E10       29.79R
LITTLE FALLS   MOSUNNY   77  68  73 SE9       29.78F
LITCHFIELD     PTSUNNY   79  75  89 SE13      29.79S
BUFFALO        SUNNY     76  69  78 SE9       29.79F
MAPLE LAKE     SUNNY     78  72  83 SE7       29.79F
HUTCHINSON     CLOUDY    78  75  89 E12       29.79S
$$
MNZ037-044-045-052-053-240100-
   East Central Minnesota

CITY           SKY/WX    TMP DP  RH WIND       PRES   REMARKS
PRINCETON      SUNNY     79  70  73 SE12      29.78F
MORA           MOSUNNY   70  64  83 SE6       29.82S
CAMBRIDGE      MOSUNNY   79  66  65 SE5       29.78F
RUSH CITY      MOSUNNY   73  68  86 SE5       29.81F
MOOSE LAKE     CLOUDY    73  64  73 SE5       29.81S
HINCKLEY       FAIR      73  68  83 SE7       29.82S
CLOQUET        CLOUDY    70  63  78 E6        29.86F
MCGREGOR       SUNNY     73  64  73 SE8       29.82F
$$
MNZ071>073-080-081-089-090-097-098-240100-
   Southwest Minnesota

CITY           SKY/WX    TMP DP  RH WIND       PRES   REMARKS
MONTEVIDEO     PTSUNNY   84  77  79 S10       29.75S HX  94
GRANITE FALLS  MOSUNNY   86  78  77 SE9G16    29.74S HX  98
CANBY          SUNNY     89  75  63 S5        29.73S HX  99
MARSHALL       MOSUNNY   87  80  79 SE10      29.73F HX 103
REDWOOD FALLS  PTSUNNY   84  76  76 SE9       29.73F HX  93
OLIVIA         PTSUNNY   79  73  83 SE12G17   29.74F
PIPESTONE      PTSUNNY   88  79  74 S8        29.77S HX 102
WINDOM         SUNNY     84  75  74 S10G17    29.77S HX  92
WORTHINGTON    MOSUNNY   84  77  79 S14       29.78S HX  94
JACKSON        SUNNY     86  73  66 S9        29.78F HX  93
TRACY          MOSUNNY   87  80  79 S9        29.75F HX 102
SLAYTON        SUNNY     86  76  72 S9        29.78S HX  97
$$
MNZ065>067-074>077-082>085-091>093-240100-
   South Central Minnesota

CITY           SKY/WX    TMP DP  RH WIND       PRES   REMARKS
MANKATO        SUNNY     81  72  74 SE15      29.79S
NEW ULM        SUNNY     82  77  83 S13       29.76F HX  91
ST JAMES       SUNNY     81  73  78 SE8       29.77S
FAIRMONT       MOSUNNY   84  75  74 SE12      29.76F HX  92
GLENCOE        PTSUNNY   81  76  84 E10       29.77F
FARIBAULT      SUNNY     81  72  74 SE7       29.82S
OWATONNA       CLOUDY    79  70  73 SE10      29.81F
WASECA         SUNNY     77  70  78 SE12      29.81F
ALBERT LEA     CLOUDY    79  72  78 S8        29.82S
$$
MNZ078>079-086>088-094>096-240100-
   Southeast Minnesota

CITY           SKY/WX    TMP DP  RH WIND       PRES   REMARKS
ROCHESTER      PTSUNNY   75  70  84 S12G20    29.83F
6HR MIN TEMP:  71; 6HR MAX TEMP:  76; 6HR PCP:  0.32;

RED WING       CLOUDY    77  70  78 SE3       29.82F
STANTON        PTSUNNY   79  70  73 SE6       29.81F
DODGE CENTER   MOSUNNY   77  70  78 SE9       29.84S
WINONA         CLOUDY    73  68  83 SE5       29.82F
AUSTIN         MOSUNNY   75  70  83 SE9       29.81F
PRESTON        CLOUDY    74  68  82 SE8       29.85F
$$
ABBREVIATIONS USED IN REMARKS
   TC - TEMPERATURES IN CELSIUS
  WCI - WIND CHILL INDEX
   HX - HEAT INDEX
  VSB - VISIBILITY
$$




USA.gov is the U.S. government's official web portal to all federal, state and local government web resources and services.